TRA88G EHRD-GMTT

Flight info

Callsign TRA88G
Flight time N/A
Altitude 35000
Route WOODY N872 LESDO DCT OLZOM DCT DISAK DCT TUDRA DCT OSMOB DCT ARVID T424 PPN N857 NOLSA N10 BAN N857 MONTO N864 VULPE DCT AMPIR DCT ADKIM
Aircraft B738/M-SDE2E3FGHIJ1P2RWXY/LB1

Departure

Time N/A
Airport Rotterdam The Hague Airport (EHRD)

Arrival

Time 2026-04-29 18:49
Airport Tangier Ibn Battuta Airport (GMTT)
Time Latitude Longitude Altitude Speed Heading
2026-04-29 17:17 43.20783 -1.37304 34885 ft 423 kts 207°
2026-04-29 17:17 43.18166 -1.39134 34878 ft 422 kts 207°
2026-04-29 17:18 43.12932 -1.42786 34892 ft 422 kts 207°
2026-04-29 17:18 43.07733 -1.46405 34896 ft 422 kts 207°
2026-04-29 17:19 43.02509 -1.50040 34902 ft 421 kts 207°
2026-04-29 17:19 42.97286 -1.53672 34919 ft 421 kts 207°
2026-04-29 17:20 42.92062 -1.57299 34913 ft 421 kts 207°
2026-04-29 17:20 42.86830 -1.60924 34923 ft 422 kts 207°
2026-04-29 17:21 42.81587 -1.64550 34912 ft 422 kts 207°
2026-04-29 17:21 42.76347 -1.68168 34906 ft 423 kts 207°
2026-04-29 17:22 42.71090 -1.71772 34921 ft 422 kts 206°
2026-04-29 17:22 42.65815 -1.75311 34908 ft 423 kts 206°
2026-04-29 17:23 42.60532 -1.78846 34905 ft 424 kts 206°
2026-04-29 17:23 42.55244 -1.82385 34911 ft 424 kts 206°
2026-04-29 17:24 42.49949 -1.85927 34901 ft 424 kts 206°
2026-04-29 17:24 42.44657 -1.89461 34902 ft 424 kts 206°
2026-04-29 17:25 42.39358 -1.92994 34896 ft 425 kts 206°
2026-04-29 17:25 42.34061 -1.96524 34889 ft 424 kts 206°
2026-04-29 17:26 42.28779 -2.00045 34888 ft 423 kts 206°
2026-04-29 17:26 42.23500 -2.03556 34891 ft 422 kts 206°
2026-04-29 17:27 42.18236 -2.07045 34889 ft 421 kts 206°
2026-04-29 17:27 42.12977 -2.10523 34899 ft 420 kts 206°
2026-04-29 17:28 42.07727 -2.13988 34902 ft 419 kts 206°
2026-04-29 17:28 42.02529 -2.17413 34899 ft 419 kts 206°
2026-04-29 17:29 41.97265 -2.20876 34908 ft 418 kts 206°
2026-04-29 17:29 41.92921 -2.23729 34894 ft 418 kts 207°
2026-04-29 17:30 41.86846 -2.27712 34908 ft 418 kts 207°
2026-04-29 17:30 41.81605 -2.31142 34912 ft 420 kts 206°
2026-04-29 17:31 41.76348 -2.34575 34902 ft 421 kts 206°
2026-04-29 17:31 41.71085 -2.38006 34896 ft 422 kts 206°
2026-04-29 17:32 41.65807 -2.41441 34900 ft 422 kts 206°
2026-04-29 17:32 41.61381 -2.44317 34893 ft 423 kts 206°
2026-04-29 17:33 41.56077 -2.47758 34894 ft 423 kts 206°
2026-04-29 17:33 41.50777 -2.51189 34901 ft 423 kts 207°
2026-04-29 17:34 41.45526 -2.54573 34885 ft 421 kts 207°
2026-04-29 17:34 41.40225 -2.57979 34889 ft 419 kts 207°
2026-04-29 17:35 41.32398 -2.63041 34884 ft 415 kts 210°
2026-04-29 17:36 41.27645 -2.67230 34897 ft 411 kts 216°
2026-04-29 17:36 41.22982 -2.71598 34893 ft 409 kts 216°
2026-04-29 17:37 41.18331 -2.75917 34883 ft 407 kts 216°
2026-04-29 17:37 41.13689 -2.80188 34888 ft 405 kts 216°
2026-04-29 17:38 41.09049 -2.84436 34867 ft 404 kts 216°
2026-04-29 17:38 41.04425 -2.88661 34878 ft 404 kts 216°
2026-04-29 17:39 40.99801 -2.92877 34885 ft 404 kts 216°
2026-04-29 17:39 40.95163 -2.97100 34881 ft 405 kts 216°
2026-04-29 17:40 40.90516 -3.01324 34893 ft 406 kts 216°
2026-04-29 17:40 40.85844 -3.05562 34888 ft 408 kts 216°
2026-04-29 17:41 40.81161 -3.09805 34882 ft 409 kts 215°
2026-04-29 17:41 40.76461 -3.14053 34876 ft 409 kts 215°
2026-04-29 17:42 40.71761 -3.18295 34870 ft 409 kts 215°
2026-04-29 17:42 40.67071 -3.22520 34866 ft 408 kts 215°
2026-04-29 17:43 40.62392 -3.26729 34858 ft 407 kts 215°
2026-04-29 17:43 40.57728 -3.30917 34859 ft 406 kts 215°
2026-04-29 17:44 40.53064 -3.35097 34861 ft 405 kts 215°
2026-04-29 17:44 40.48413 -3.39259 34856 ft 404 kts 215°
2026-04-29 17:45 40.43767 -3.43410 34892 ft 404 kts 215°
2026-04-29 17:45 40.39122 -3.47551 34855 ft 403 kts 216°
2026-04-29 17:46 40.34487 -3.51678 34857 ft 403 kts 216°
2026-04-29 17:46 40.29857 -3.55794 34856 ft 402 kts 216°
2026-04-29 17:47 40.25233 -3.59897 34860 ft 401 kts 215°
2026-04-29 17:47 40.20604 -3.63998 34855 ft 401 kts 215°
2026-04-29 17:48 40.15980 -3.68089 34848 ft 401 kts 216°
2026-04-29 17:48 40.11355 -3.72172 34858 ft 401 kts 216°
2026-04-29 17:49 40.06729 -3.76246 34855 ft 401 kts 216°
2026-04-29 17:49 40.02096 -3.80318 34858 ft 402 kts 216°
2026-04-29 17:50 39.97447 -3.84399 34864 ft 403 kts 215°
2026-04-29 17:50 39.92799 -3.88474 34844 ft 403 kts 216°
2026-04-29 17:51 39.88144 -3.92548 34853 ft 403 kts 216°
2026-04-29 17:51 39.83496 -3.96610 34857 ft 402 kts 216°
2026-04-29 17:52 39.78879 -4.00639 34855 ft 402 kts 216°
2026-04-29 17:52 39.74197 -4.04717 34862 ft 402 kts 216°
2026-04-29 17:53 39.69588 -4.08730 34860 ft 402 kts 216°
2026-04-29 17:53 39.64946 -4.12771 34863 ft 401 kts 216°
2026-04-29 17:54 39.60311 -4.16802 34859 ft 401 kts 216°
2026-04-29 17:54 39.55672 -4.20829 34868 ft 401 kts 216°
2026-04-29 17:55 39.51043 -4.24842 34864 ft 401 kts 216°
2026-04-29 17:55 39.46410 -4.28850 34855 ft 400 kts 216°
2026-04-29 17:56 39.41773 -4.32857 34864 ft 401 kts 216°
2026-04-29 17:56 39.37135 -4.36858 34869 ft 401 kts 216°
2026-04-29 17:57 39.32486 -4.40862 34874 ft 402 kts 216°
2026-04-29 17:57 39.27832 -4.44865 34872 ft 403 kts 216°
2026-04-29 17:58 39.23025 -4.48592 34863 ft 406 kts 207°
2026-04-29 17:58 39.17586 -4.50755 34867 ft 415 kts 194°
2026-04-29 17:59 39.11868 -4.51898 34864 ft 416 kts 194°
2026-04-29 17:59 39.06148 -4.53053 34879 ft 416 kts 194°
2026-04-29 18:00 39.00427 -4.54240 34863 ft 416 kts 194°
2026-04-29 18:00 38.94697 -4.55435 34973 ft 420 kts 194°
2026-04-29 18:00 38.91818 -4.56034 35225 ft 418 kts 194°
2026-04-29 18:01 38.88996 -4.56624 35488 ft 417 kts 194°
2026-04-29 18:01 38.86103 -4.57231 35664 ft 417 kts 194°
2026-04-29 18:01 38.83222 -4.57836 35831 ft 418 kts 194°
2026-04-29 18:01 38.80356 -4.58437 35996 ft 419 kts 194°
2026-04-29 18:02 38.77473 -4.59041 36103 ft 420 kts 194°
2026-04-29 18:02 38.74580 -4.59647 36240 ft 421 kts 194°
2026-04-29 18:02 38.71695 -4.60250 36444 ft 421 kts 194°
2026-04-29 18:02 38.68800 -4.60853 36635 ft 420 kts 194°
2026-04-29 18:03 38.65918 -4.61454 36796 ft 420 kts 194°
2026-04-29 18:03 38.60122 -4.62663 36875 ft 424 kts 194°
2026-04-29 18:04 38.54314 -4.63870 36864 ft 422 kts 194°
2026-04-29 18:04 38.48540 -4.65067 36872 ft 419 kts 195°
2026-04-29 18:05 38.42805 -4.66256 36879 ft 417 kts 195°
2026-04-29 18:05 38.37087 -4.67441 36887 ft 415 kts 195°
2026-04-29 18:06 38.31386 -4.68619 36888 ft 415 kts 195°
2026-04-29 18:06 38.25712 -4.69780 36888 ft 416 kts 194°
2026-04-29 18:07 38.19945 -4.70949 36891 ft 418 kts 194°
2026-04-29 18:07 38.14230 -4.72108 36894 ft 419 kts 194°
2026-04-29 18:08 38.08468 -4.73275 36880 ft 421 kts 194°
2026-04-29 18:08 38.02675 -4.74446 36883 ft 422 kts 194°
2026-04-29 18:09 37.96865 -4.75620 36911 ft 423 kts 194°
2026-04-29 18:09 37.91044 -4.76794 36912 ft 424 kts 194°
2026-04-29 18:10 37.85219 -4.77967 36883 ft 424 kts 195°
2026-04-29 18:10 37.79391 -4.79139 36904 ft 424 kts 195°
2026-04-29 18:11 37.73806 -4.81189 36910 ft 413 kts 211°
2026-04-29 18:11 37.68727 -4.84529 36914 ft 412 kts 212°
2026-04-29 18:12 37.63641 -4.87886 36906 ft 413 kts 212°
2026-04-29 18:12 37.58540 -4.91219 36889 ft 413 kts 212°
2026-04-29 18:13 37.53423 -4.94543 36895 ft 414 kts 212°
2026-04-29 18:13 37.48292 -4.97866 36902 ft 415 kts 212°
2026-04-29 18:14 37.43159 -5.01185 36898 ft 415 kts 212°
2026-04-29 18:14 37.38053 -5.04482 36916 ft 415 kts 212°
2026-04-29 18:15 37.32912 -5.07795 36911 ft 415 kts 212°
2026-04-29 18:15 37.27769 -5.11106 36915 ft 415 kts 212°
2026-04-29 18:16 37.22630 -5.14409 36916 ft 416 kts 212°
2026-04-29 18:16 37.17469 -5.17721 36917 ft 416 kts 212°
2026-04-29 18:17 37.12322 -5.21019 36926 ft 416 kts 212°
2026-04-29 18:17 37.07175 -5.24311 36923 ft 415 kts 212°
2026-04-29 18:18 37.02019 -5.27604 36929 ft 415 kts 212°
2026-04-29 18:18 36.97743 -5.30332 36937 ft 415 kts 212°
2026-04-29 18:19 36.92595 -5.33611 36940 ft 415 kts 212°
2026-04-29 18:19 36.90019 -5.35250 36790 ft 418 kts 212°
2026-04-29 18:19 36.87414 -5.36909 36320 ft 421 kts 212°
2026-04-29 18:19 36.84804 -5.38567 35734 ft 419 kts 211°
2026-04-29 18:20 36.82210 -5.40212 35117 ft 419 kts 211°
2026-04-29 18:20 36.79613 -5.41859 34490 ft 419 kts 212°
2026-04-29 18:20 36.77010 -5.43508 33867 ft 420 kts 211°
2026-04-29 18:20 36.74405 -5.45158 33137 ft 421 kts 211°
2026-04-29 18:21 36.71798 -5.46808 32584 ft 418 kts 211°
2026-04-29 18:21 36.69218 -5.48437 32114 ft 414 kts 211°
2026-04-29 18:21 36.66665 -5.50049 31658 ft 410 kts 211°
2026-04-29 18:21 36.64138 -5.51642 31178 ft 406 kts 211°
2026-04-29 18:22 36.61635 -5.53221 30732 ft 401 kts 212°
2026-04-29 18:22 36.59146 -5.54790 30292 ft 398 kts 212°
2026-04-29 18:22 36.56698 -5.56332 29830 ft 394 kts 212°
2026-04-29 18:22 36.54254 -5.57871 29333 ft 391 kts 211°
2026-04-29 18:23 36.51843 -5.59388 28897 ft 385 kts 211°
2026-04-29 18:23 36.49472 -5.60879 28456 ft 380 kts 211°
2026-04-29 18:23 36.47126 -5.62352 28022 ft 376 kts 211°
2026-04-29 18:23 36.44799 -5.63813 27563 ft 373 kts 211°
2026-04-29 18:24 36.42491 -5.65262 27133 ft 369 kts 211°
2026-04-29 18:24 36.40211 -5.66692 26697 ft 366 kts 211°
2026-04-29 18:24 36.37975 -5.68094 26277 ft 363 kts 211°
2026-04-29 18:24 36.35730 -5.69500 25843 ft 360 kts 211°
2026-04-29 18:25 36.33499 -5.70897 25431 ft 358 kts 211°
2026-04-29 18:25 36.31288 -5.72280 25031 ft 355 kts 211°
2026-04-29 18:25 36.29087 -5.73656 24626 ft 353 kts 211°
2026-04-29 18:25 36.26902 -5.75021 24216 ft 351 kts 211°
2026-04-29 18:26 36.24720 -5.76384 23812 ft 350 kts 211°
2026-04-29 18:26 36.22550 -5.77738 23364 ft 349 kts 210°
2026-04-29 18:26 36.20388 -5.79086 22908 ft 347 kts 210°
2026-04-29 18:26 36.18239 -5.80425 22481 ft 345 kts 210°
2026-04-29 18:27 36.16104 -5.81754 22078 ft 342 kts 210°
2026-04-29 18:27 36.13988 -5.83071 21658 ft 340 kts 210°
2026-04-29 18:27 36.11883 -5.84380 21251 ft 338 kts 210°
2026-04-29 18:27 36.09788 -5.85683 20839 ft 338 kts 210°
2026-04-29 18:28 36.07687 -5.86989 20450 ft 337 kts 210°
2026-04-29 18:28 36.05577 -5.88300 20069 ft 344 kts 210°
2026-04-29 18:28 36.03411 -5.89647 19667 ft 353 kts 209°
2026-04-29 18:28 36.01208 -5.91013 19240 ft 353 kts 209°
2026-04-29 18:29 35.99017 -5.92369 18814 ft 351 kts 209°
2026-04-29 18:29 35.97577 -5.93261 18544 ft 350 kts 209°
2026-04-29 18:29 35.94676 -5.95055 17958 ft 348 kts 209°
2026-04-29 18:29 35.92529 -5.96417 17476 ft 346 kts 211°
2026-04-29 18:30 35.90436 -5.97860 17025 ft 343 kts 212°
2026-04-29 18:30 35.88397 -5.99285 16615 ft 340 kts 212°
2026-04-29 18:30 35.86343 -6.00707 16218 ft 338 kts 211°
2026-04-29 18:30 35.84298 -6.02108 15807 ft 335 kts 210°
2026-04-29 18:31 35.82107 -6.03078 15390 ft 338 kts 192°
2026-04-29 18:31 35.79782 -6.03435 15037 ft 336 kts 189°
2026-04-29 18:31 35.77463 -6.03751 14647 ft 334 kts 189°
2026-04-29 18:31 35.75169 -6.04108 14266 ft 332 kts 191°
2026-04-29 18:32 35.72888 -6.04497 13886 ft 330 kts 191°
2026-04-29 18:32 35.68447 -6.05620 13025 ft 322 kts 210°
2026-04-29 18:32 35.66727 -6.07312 12658 ft 316 kts 229°
2026-04-29 18:33 35.65520 -6.09546 12260 ft 313 kts 246°
2026-04-29 18:33 35.64831 -6.12073 11892 ft 311 kts 253°
2026-04-29 18:33 35.64273 -6.14633 11500 ft 310 kts 258°
2026-04-29 18:33 35.64416 -6.17258 11133 ft 313 kts 288°
2026-04-29 18:34 35.65680 -6.19432 10833 ft 319 kts 319°
2026-04-29 18:34 35.66335 -6.19964 10749 ft 321 kts 329°
2026-04-29 18:34 35.69126 -6.21246 10416 ft 317 kts 336°
2026-04-29 18:34 35.71180 -6.22145 10290 ft 311 kts 336°
2026-04-29 18:35 35.73236 -6.23049 10058 ft 321 kts 337°
2026-04-29 18:35 35.75470 -6.23537 9794 ft 337 kts
2026-04-29 18:35 35.77684 -6.22693 9522 ft 331 kts 30°
2026-04-29 18:35 35.79355 -6.20836 9257 ft 320 kts 54°
2026-04-29 18:36 35.80339 -6.18462 8990 ft 307 kts 76°
2026-04-29 18:36 35.80568 -6.15925 8713 ft 294 kts 101°
2026-04-29 18:36 35.79917 -6.13600 8496 ft 295 kts 126°
2026-04-29 18:36 35.78554 -6.11721 8261 ft 294 kts 148°
2026-04-29 18:37 35.76813 -6.10452 8089 ft 287 kts 155°
2026-04-29 18:37 35.75135 -6.09219 8062 ft 278 kts 142°
2026-04-29 18:37 35.74031 -6.07309 8041 ft 276 kts 115°
2026-04-29 18:37 35.73632 -6.04999 8045 ft 279 kts 96°
2026-04-29 18:38 35.73588 -6.02589 8074 ft 286 kts 94°
2026-04-29 18:38 35.73563 -6.00119 8081 ft 291 kts 94°
2026-04-29 18:38 35.73528 -5.97633 8079 ft 290 kts 94°
2026-04-29 18:38 35.73483 -5.95158 8073 ft 288 kts 94°
2026-04-29 18:39 35.73426 -5.92695 7915 ft 289 kts 97°
2026-04-29 18:39 35.72917 -5.90343 7606 ft 281 kts 119°
2026-04-29 18:39 35.72081 -5.88194 7350 ft 279 kts 120°
2026-04-29 18:39 35.71239 -5.86042 7073 ft 278 kts 120°
2026-04-29 18:40 35.70411 -5.83905 6806 ft 278 kts 120°
2026-04-29 18:40 35.69584 -5.81754 6538 ft 277 kts 120°
2026-04-29 18:40 35.68767 -5.79616 6254 ft 273 kts 119°
2026-04-29 18:40 35.67979 -5.77542 6091 ft 261 kts 119°
2026-04-29 18:41 35.65832 -5.71882 5754 ft 232 kts 120°
2026-04-29 18:41 35.65153 -5.70099 5648 ft 231 kts 120°
2026-04-29 18:42 35.64473 -5.68274 5442 ft 241 kts 114°
2026-04-29 18:42 35.64293 -5.66187 5174 ft 253 kts 81°
2026-04-29 18:42 35.65064 -5.64249 4910 ft 257 kts 47°
2026-04-29 18:42 35.66544 -5.63081 4614 ft 256 kts 13°
2026-04-29 18:43 35.68283 -5.63023 4336 ft 248 kts 340°
2026-04-29 18:43 35.69738 -5.64016 4096 ft 235 kts 310°
2026-04-29 18:43 35.70545 -5.65641 4068 ft 209 kts 286°
2026-04-29 18:43 35.70884 -5.67302 3948 ft 192 kts 273°
2026-04-29 18:44 35.71030 -5.68851 3817 ft 172 kts 272°
2026-04-29 18:44 35.71159 -5.70261 3513 ft 163 kts 272°
2026-04-29 18:44 35.71284 -5.71638 3109 ft 159 kts 273°
2026-04-29 18:44 35.71405 -5.72945 2920 ft 148 kts 274°
2026-04-29 18:45 35.71518 -5.74191 2699 ft 145 kts 274°
2026-04-29 18:45 35.71628 -5.75409 2493 ft 143 kts 274°
2026-04-29 18:45 35.71740 -5.76635 2301 ft 144 kts 274°
2026-04-29 18:45 35.71851 -5.77860 2099 ft 144 kts 275°
2026-04-29 18:46 35.71962 -5.79076 1891 ft 144 kts 275°
2026-04-29 18:46 35.72074 -5.80302 1718 ft 143 kts 276°
2026-04-29 18:46 35.72186 -5.81512 1518 ft 143 kts 276°
2026-04-29 18:46 35.72297 -5.82732 1325 ft 144 kts 276°
2026-04-29 18:47 35.72410 -5.83956 1131 ft 143 kts 277°
2026-04-29 18:47 35.72521 -5.85166 944 ft 142 kts 277°
2026-04-29 18:47 35.72632 -5.86376 750 ft 142 kts 277°
2026-04-29 18:47 35.72744 -5.87624 622 ft 141 kts 277°
2026-04-29 18:48 35.72853 -5.88790 394 ft 138 kts 277°
2026-04-29 18:48 35.72956 -5.89965 206 ft 139 kts 278°
2026-04-29 18:48 35.73070 -5.91130 57 ft 131 kts 278°
2026-04-29 18:48 35.73168 -5.92135 33 ft 101 kts 277°
2026-04-29 18:49 35.73229 -5.92800 24 ft 58 kts 276°
2026-04-29 18:49 35.73259 -5.93123 18 ft 27 kts 276°
2026-04-29 18:49 35.73248 -5.93283 17 ft 14 kts 237°
2026-04-29 18:49 35.73168 -5.93327 18 ft 13 kts 166°
2026-04-29 18:50 35.73100 -5.93262 19 ft 13 kts 123°
2026-04-29 18:50 35.73082 -5.93160 20 ft 12 kts 95°
2026-04-29 18:50 35.73074 -5.93054 22 ft 12 kts 94°
2026-04-29 18:50 35.73064 -5.92954 23 ft 12 kts 97°
2026-04-29 18:51 35.73055 -5.92857 24 ft 11 kts 96°
2026-04-29 18:51 35.73046 -5.92760 26 ft 11 kts 96°
2026-04-29 18:51 35.73037 -5.92665 27 ft 11 kts 97°
2026-04-29 18:51 35.73028 -5.92573 28 ft 11 kts 97°
2026-04-29 18:52 35.73018 -5.92473 29 ft 14 kts 97°
2026-04-29 18:52 35.73006 -5.92343 31 ft 15 kts 96°
2026-04-29 18:52 35.72994 -5.92216 32 ft 15 kts 96°
2026-04-29 18:52 35.72983 -5.92094 34 ft 14 kts 97°
2026-04-29 18:53 35.72971 -5.91977 33 ft 13 kts 97°
2026-04-29 18:53 35.72960 -5.91865 37 ft 13 kts 96°
2026-04-29 18:53 35.72943 -5.91759 36 ft 13 kts 117°
2026-04-29 18:53 35.72869 -5.91717 39 ft 12 kts 174°
2026-04-29 18:54 35.72785 -5.91710 39 ft 12 kts 176°
2026-04-29 18:54 35.72702 -5.91702 40 ft 12 kts 174°
2026-04-29 18:54 35.72612 -5.91694 40 ft 14 kts 176°
2026-04-29 18:54 35.72518 -5.91683 40 ft 13 kts 168°
2026-04-29 18:55 35.72445 -5.91623 41 ft 13 kts 123°
2026-04-29 18:55 35.72428 -5.91518 43 ft 13 kts 87°
2026-04-29 18:55 35.72433 -5.91413 44 ft 12 kts 85°
2026-04-29 18:55 35.72440 -5.91310 45 ft 12 kts 85°
2026-04-29 18:56 35.72448 -5.91210 46 ft 12 kts 86°
2026-04-29 18:56 35.72471 -5.91123 48 ft 11 kts 24°
2026-04-29 18:56 35.72530 -5.91129 47 ft 4 kts 355°
2026-04-29 18:56 35.72540 -5.91129 47 ft 0 kts 356°